Location: ??????
(41.3747°N, 22.5491°E)
Time: 05:30:47
(UTC+00:00)

Meteor 1-27 Rocket - Pass Details

Date: 01 December 2020
Orbit: 830 x 909 km, 81.3° (Epoch: 20 January)

Event Time Altitude Azimuth Distance (km) Brightness Sun altitude
Rises 16:30:19 0° 159° (SSE) 3,360 6.8 -16.3°
Reaches altitude 10° 16:32:58 10° 148° (SSE) 2,433 5.9 -16.8°
Maximum altitude 16:37:40 30° 89° (E) 1,471 4.4 -17.7°
Enters shadow 16:37:56 30° 84° (E) 1,477 4.4 -17.7°
